Dewpoint
21 17 16 17 17 16 15 15 15 15 15 14 14 13 13 14 13 14 21 30 30 32 33 35 39 46 48 59 58 57 60 64 62 64 64 64 63 62 65 66 67 67 70 70
16 15 17 16 16 17 17 16 15 16 16 13 14 13 14 14 14 14 14 20 30 33 34 35 36 38 50 58 57 57 56 61 62 64 64 62 62 62 63 66 66 68 69 70
17 15 14 15 16 15 16 15 16 16 16 15 14 14 14 14 14 14 15 15 24 35 35 36 39 39 44 60 61 60 61 62 61 64 66 64 64 66 67 66 66 69 69 70
15 11 12 19 18 17 17 22 22 18 13 11 14 9 12 13 13 14 15 14 18 26 34 34 35 41 56 57 57 59 61 60 62 63 64 63 61 61 64 66 68 69 69 69
12 11 20 19 22 28 26 25 20 19 15 11 10 10 10 15 12 12 14 17 20 24 32 34 35 40 54 54 57 58 60 60 61 64 63 62 63 64 64 67 68 68 69 69
16 18 18 28 27 25 26 27 24 19 12 9 9 9 8 9 10 13 14 15 19 24 32 33 34 38 50 53 54 55 57 59 59 62 65 62 61 64 66 66 68 68 68 69
20 16 19 25 25 21 20 26 24 18 13 12 12 17 20 25 18 12 13 15 14 16 23 33 33 36 45 45 49 52 54 57 62 62 64 64 61 64 65 67 68 68 67 67
17 16 16 20 16 14 17 23 24 18 15 15 16 16 15 23 26 26 25 20 13 15 23 32 31 31 37 42 45 50 53 52 61 61 64 64 65 68 66 69 68 68 67 67
23 22 23 19 15 14 14 20 21 23 25 25 23 20 22 23 26 32 34 23 18 19 35 28 33 38 37 40 43 45 46 58 60 64 63 68 66 69 68 68 68 67 67 67
26 24 24 22 24 22 25 24 19 30 20 19 18 19 20 35 38 38 38 38 33 27 34 37 40 46 52 54 56 56 53 60 61 63 67 68 68 69 70 70 68 67 68 68
27 27 25 24 22 25 27 28 31 33 30 23 19 17 37 38 39 39 37 39 40 36 33 33 41 53 54 56 56 57 55 59 65 68 68 68 69 70 69 69 68 68 68 68
33 32 25 23 21 29 29 27 31 28 24 26 25 23 38 39 39 40 38 41 44 37 32 42 55 56 56 56 56 57 55 65 67 68 68 69 69 68 68 67 66 67 67 66
34 29 24 21 21 32 28 25 26 33 34 28 24 21 35 37 37 39 41 44 45 43 32 30 54 53 55 55 56 57 64 66 68 68 68 68 67 67 66 65 65 65 63 62
37 31 28 24 25 28 26 24 25 25 25 24 22 21 32 37 37 39 41 43 43 41 37 29 41 53 57 59 57 63 64 66 67 67 67 66 66 66 65 65 64 64 62 61
34 32 31 29 28 26 24 22 25 22 22 24 27 28 34 38 39 40 42 44 41 36 37 30 34 54 58 61 62 62 65 65 66 66 65 65 65 65 64 63 63 62 62 61
36 33 32 30 28 25 22 25 28 25 25 25 26 29 37 39 41 41 38 37 36 34 33 27 33 43 60 61 62 63 64 64 64 64 64 64 64 63 62 62 61 61 61 60
37 34 32 27 26 26 23 22 26 29 28 27 29 34 34 38 37 35 33 35 37 43 40 35 35 52 55 61 62 63 62 64 63 63 63 63 62 61 61 62 62 61 61 60
36 33 34 29 29 21 23 28 30 29 30 31 33 37 37 37 38 36 36 43 40 42 43 44 35 48 58 63 62 64 63 62 62 61 61 60 60 61 61 61 60 62 60 61
38 35 30 26 25 27 26 36 35 34 31 39 38 37 37 38 36 35 43 39 39 40 41 43 44 52 59 63 64 62 61 59 58 57 57 59 60 61 60 60 61 61 61 60
38 38 34 28 22 18 32 38 37 37 28 39 37 36 36 37 35 35 37 39 39 40 40 42 44 44 60 62 63 62 59 56 55 55 55 59 60 60 60 60 62 61 61 61
34 34 30 29 28 29 37 40 39 30 28 40 39 38 38 38 37 38 39 40 40 40 40 42 43 44 54 62 59 62 57 54 53 54 55 59 60 61 61 62 62 61 61 61
28 29 30 32 30 24 41 39 35 35 38 39 40 40 39 40 40 40 41 41 40 40 41 41 42 46 51 60 62 62 60 54 53 55 58 60 60 61 62 62 61 61 61 60
29 35 34 35 32 38 42 41 41 43 41 41 41 41 40 41 41 40 41 41 40 40 40 41 42 43 49 60 64 62 60 53 56 59 59 59 60 61 61 61 61 61 61 60
35 34 33 34 37 40 42 42 43 43 43 43 42 42 43 42 41 41 40 41 41 40 40 41 42 45 54 61 63 61 61 56 58 59 59 60 60 61 61 62 61 61 60 60
32 34 34 35 39 41 41 42 42 44 44 42 42 42 41 41 41 42 43 42 41 39 40 42 43 52 56 62 62 62 61 58 58 59 60 60 60 61 56 52 52 58 53 56
36 37 38 37 41 40 40 42 44 44 42 42 42 40 40 39 40 42 43 43 41 40 41 43 47 55 58 62 62 61 59 59 59 59 59 59 60 59 57 55 53 42 41 41
Lifted_Index
8 7 7 7 7 6 6 7 7 7 7 6 6 7 7 7 7 6 6 5 4 3 2 1 0 0 -1 -2 -2 -2 -2 -3 -3 -4 -4 -4 -3 -3 -3 -3 -4 -5 -6 -7
7 7 7 7 7 7 7 7 7 7 7 6 6 7 7 7 7 7 6 6 5 4 3 2 1 -0 -1 -2 -3 -2 -2 -2 -2 -2 -3 -3 -2 -2 -3 -3 -4 -5 -6 -7
7 7 7 7 7 7 6 6 6 6 6 6 6 6 6 7 7 7 7 7 6 4 3 2 2 0 -1 -3 -3 -2 -2 -2 -1 -2 -2 -2 -2 -2 -3 -4 -4 -5 -6 -6
7 7 7 6 6 6 6 5 5 5 5 5 5 6 7 7 7 7 7 7 6 5 3 3 2 1 -1 -3 -2 -2 -2 -2 -1 -2 -2 -2 -2 -2 -3 -4 -5 -6 -6 -6
5 5 5 5 4 4 4 3 3 3 3 4 5 5 7 8 7 7 7 7 6 5 3 3 2 1 -1 -2 -1 -1 -1 -1 -1 -2 -2 -2 -2 -2 -3 -4 -5 -6 -6 -6
3 3 3 2 2 2 1 1 1 1 1 3 3 4 6 7 8 8 8 7 5 4 3 2 2 2 0 -1 -0 0 0 -0 -1 -2 -2 -2 -2 -3 -4 -5 -5 -6 -6 -6
2 2 2 1 1 1 0 -0 -0 -0 0 1 2 2 4 6 7 7 8 7 5 3 2 2 2 2 1 0 1 1 1 1 -0 -1 -2 -2 -2 -3 -4 -5 -6 -6 -6 -5
2 2 2 1 1 1 0 -0 -0 -0 0 1 1 1 2 3 4 5 6 5 4 3 2 1 2 2 1 1 1 2 2 2 0 -1 -2 -2 -3 -4 -4 -5 -6 -6 -5 -5
2 2 1 1 0 0 0 0 -0 -0 0 1 1 1 1 1 1 2 3 3 3 2 1 1 1 1 1 1 1 2 2 2 0 -1 -2 -3 -4 -4 -5 -6 -6 -6 -5 -5
2 2 1 0 -0 -0 0 0 -0 -0 0 0 0 1 0 0 -0 0 1 2 2 1 0 -0 -1 -1 -1 -1 -1 0 1 1 -0 -2 -3 -4 -4 -5 -6 -6 -6 -5 -5 -5
1 1 1 0 -0 -0 -0 0 0 -0 -0 0 0 0 -0 0 0 1 1 2 2 1 0 -1 -2 -3 -3 -2 -2 -1 -1 -1 -2 -3 -4 -5 -5 -6 -6 -6 -6 -6 -5 -5
2 2 1 1 0 -0 -0 0 0 0 0 0 0 0 0 0 1 2 2 2 2 1 0 -2 -4 -5 -4 -3 -2 -2 -2 -3 -4 -5 -5 -5 -6 -6 -6 -6 -5 -5 -5 -5
2 2 2 1 1 0 0 0 0 0 0 0 -0 -0 0 1 2 2 2 2 2 1 1 -1 -3 -4 -4 -3 -3 -3 -4 -5 -5 -5 -6 -6 -6 -6 -6 -5 -4 -4 -4 -3
2 2 2 1 1 1 1 1 1 0 0 -0 -0 -0 -0 1 2 2 2 2 2 2 1 0 -1 -3 -4 -4 -4 -4 -5 -5 -5 -5 -6 -6 -6 -5 -5 -4 -3 -3 -2 -2
1 1 1 1 1 1 1 1 0 0 -0 -0 -0 -0 -0 1 2 3 3 3 3 2 2 1 0 -2 -3 -4 -5 -5 -6 -5 -5 -5 -5 -5 -5 -4 -3 -3 -2 -2 -1 -1
1 1 1 1 1 1 1 1 0 -0 -0 -0 -0 -0 -0 0 1 2 3 3 2 2 2 2 1 -0 -2 -4 -5 -5 -5 -5 -5 -5 -4 -4 -4 -3 -2 -2 -2 -1 -1 -1
1 1 2 2 1 1 1 1 0 -0 -0 -0 -0 -0 -0 -0 0 1 1 2 1 1 1 2 2 1 -2 -3 -5 -5 -5 -5 -5 -4 -4 -3 -3 -2 -2 -1 -1 -1 -1 -0
1 1 2 2 2 1 1 1 0 0 0 0 0 0 0 0 0 0 0 0 0 1 2 2 2 1 -2 -3 -4 -5 -5 -5 -4 -4 -3 -3 -2 -2 -1 -1 -1 -1 -0 0
1 1 2 2 2 1 1 1 1 1 1 1 1 1 1 1 1 1 0 -1 -1 1 2 3 2 1 -2 -3 -4 -4 -5 -4 -3 -3 -2 -2 -2 -1 -1 -1 -1 -0 -0 0
1 1 1 1 1 1 1 1 2 2 1 1 1 2 2 3 3 2 2 1 0 1 2 2 2 1 -1 -2 -2 -3 -4 -4 -3 -2 -2 -2 -1 -1 -1 -1 -1 -0 -0 0
1 1 1 1 1 1 1 1 2 2 2 1 1 2 3 3 3 4 4 3 2 2 2 2 2 1 -0 -1 -2 -3 -4 -3 -2 -1 -1 -2 -2 -1 -1 -1 -1 -1 -0 -0
0 0 1 1 1 1 0 1 1 2 2 2 2 3 3 3 4 5 5 5 4 3 2 2 2 1 0 -1 -2 -4 -3 -2 -1 -1 -1 -2 -2 -1 -1 -1 -1 -1 -1 -1
0 0 0 0 0 0 0 0 1 1 2 2 3 3 3 4 4 6 7 6 6 4 3 2 2 1 -0 -2 -3 -4 -3 -2 -1 -1 -1 -1 -1 -1 -1 -1 -1 -1 -1 -0
0 0 1 0 0 0 0 0 1 1 2 3 4 4 4 4 5 6 7 7 6 5 4 3 2 1 -1 -2 -4 -4 -4 -2 -2 -1 -1 -1 -1 -1 -1 -1 -1 -1 -0 -0
1 1 1 0 0 1 1 1 1 1 2 4 5 5 5 5 6 7 8 7 7 6 5 4 2 1 -1 -3 -4 -4 -3 -2 -2 -2 -1 -1 -1 -1 -1 -1 -1 -0 -0 -0
1 1 1 0 0 1 1 1 1 2 3 4 5 5 5 5 6 7 8 7 7 7 6 4 2 1 -1 -3 -4 -4 -3 -2 -2 -2 -1 -1 -1 -1 -1 -1 -0 -0 -0 -0